This is the latest recevied weather packets stored in our database for station/object WX4LTG. If no packets are shown the sender has not sent any weather packets the latest 1 day(s).
| Time | Temp. | Humidity | Pressure | Rain* | Wind** | Luminosity | Snow |
|---|---|---|---|---|---|---|---|
| 1778047153 | 20° C | 33% | 1012.9 hPa | 0 mm | 0.45 m/s, 290° | 0 W/m² | - |
| 1778046850 | 20° C | 33% | 1012.8 hPa | 0 mm | 0.89 m/s, 166° | 0 W/m² | - |
| 1778046546 | 20° C | 33% | 1012.8 hPa | 0 mm | 0.45 m/s, 227° | 0 W/m² | - |
| 1778046244 | 20° C | 33% | 1012.6 hPa | 0 mm | 0.89 m/s, 163° | 0 W/m² | - |
| 1778045940 | 20° C | 33% | 1012.7 hPa | 0 mm | 1.34 m/s, 234° | 0 W/m² | - |
| 1778045638 | 20.56° C | 32% | 1012.7 hPa | 0 mm | 1.34 m/s, 198° | 0 W/m² | - |
| 1778045336 | 20.56° C | 32% | 1012.8 hPa | 0 mm | 0.89 m/s, 257° | 0 W/m² | - |
| 1778045034 | 20.56° C | 32% | 1012.7 hPa | 0 mm | 0.89 m/s, 319° | 0 W/m² | - |
| 1778044732 | 20.56° C | 32% | 1012.3 hPa | 0 mm | 0 m/s | 0 W/m² | - |
| 1778044428 | 20.56° C | 32% | 1012.6 hPa | 0 mm | 0.45 m/s, 299° | 0 W/m² | - |
| 1778044125 | 20.56° C | 31% | 1012.6 hPa | 0 mm | 2.24 m/s, 241° | 0 W/m² | - |
| 1778043823 | 20.56° C | 31% | 1012.5 hPa | 0 mm | 0.45 m/s, 222° | 0 W/m² | - |
| 1778043520 | 20.56° C | 31% | 1012.4 hPa | 0 mm | 0.89 m/s, 295° | 0 W/m² | - |
| 1778043216 | 20.56° C | 31% | 1012.5 hPa | 0 mm | 0 m/s | 0 W/m² | - |
| 1778042913 | 20.56° C | 31% | 1012.2 hPa | 0 mm | 0.45 m/s, 245° | 0 W/m² | - |
| 1778042611 | 20.56° C | 31% | 1012.3 hPa | 0 mm | 0.45 m/s, 246° | 0 W/m² | - |
| 1778042308 | 20.56° C | 30% | 1012.3 hPa | 0 mm | 0 m/s | 0 W/m² | - |
| 1778042005 | 20.56° C | 30% | 1012.1 hPa | 0 mm | 0 m/s | 0 W/m² | - |
| 1778041703 | 21.11° C | 30% | 1012.1 hPa | 0 mm | 0 m/s | 0 W/m² | - |
| 1778041402 | 21.11° C | 30% | 1012.2 hPa | 0 mm | 0.45 m/s, 242° | 0 W/m² | - |
| 1778041100 | 21.11° C | 30% | 1012.1 hPa | 0 mm | 1.34 m/s, 246° | 0 W/m² | - |
| 1778040797 | 21.11° C | 29% | 1012 hPa | 0 mm | 0 m/s | 0 W/m² | - |
| 1778040494 | 21.11° C | 29% | 1011.9 hPa | 0 mm | 2.24 m/s, 225° | 0 W/m² | - |
| 1778040192 | 21.67° C | 29% | 1011.9 hPa | 0 mm | 0.89 m/s, 301° | 0 W/m² | - |
| 1778039888 | 21.67° C | 29% | 1011.6 hPa | 0 mm | 0 m/s | 0 W/m² | - |
* Rain latest hour (hover to see other rain measurements)
** Current wind speed in m/s (hover to see current wind gust speed)